Year,Month,Day,Hour,Minute,Value (Times are PST for temperature in C)
2011,04,18,00,00,4.90
2011,04,18,00,01,4.90
2011,04,18,00,02,4.90
2011,04,18,00,03,4.90
2011,04,18,00,04,4.90
2011,04,18,00,05,4.90
2011,04,18,00,06,4.90
2011,04,18,00,07,4.80
2011,04,18,00,08,4.80
2011,04,18,00,09,4.80
2011,04,18,00,10,4.90
2011,04,18,00,11,4.90
2011,04,18,00,12,4.90
2011,04,18,00,13,4.90
2011,04,18,00,14,4.90
2011,04,18,00,15,4.90
2011,04,18,00,16,4.90
2011,04,18,00,17,4.90
2011,04,18,00,18,4.90
2011,04,18,00,19,4.90
2011,04,18,00,20,4.90
2011,04,18,00,21,4.90
2011,04,18,00,22,4.90
2011,04,18,00,23,4.90
2011,04,18,00,24,4.90
2011,04,18,00,25,4.90
2011,04,18,00,26,4.90
2011,04,18,00,27,4.90
2011,04,18,00,28,4.90
2011,04,18,00,29,4.90
2011,04,18,00,30,4.80
2011,04,18,00,31,4.80
2011,04,18,00,32,4.80
2011,04,18,00,33,4.80
2011,04,18,00,34,4.70
2011,04,18,00,35,4.70
2011,04,18,00,36,4.70
2011,04,18,00,37,4.70
2011,04,18,00,38,4.60
2011,04,18,00,39,4.60
2011,04,18,00,40,4.60
2011,04,18,00,41,4.60
2011,04,18,00,42,4.60
2011,04,18,00,43,4.60
2011,04,18,00,44,4.60
2011,04,18,00,45,4.60
2011,04,18,00,46,4.60
2011,04,18,00,47,4.60
2011,04,18,00,48,4.60
2011,04,18,00,49,4.60
2011,04,18,00,50,4.60
2011,04,18,00,51,4.50
2011,04,18,00,52,4.50
2011,04,18,00,53,4.50
2011,04,18,00,54,4.50
2011,04,18,00,55,4.50
2011,04,18,00,56,4.50
2011,04,18,00,57,4.40
2011,04,18,00,58,4.40
2011,04,18,00,59,4.40
2011,04,18,01,00,4.40
2011,04,18,01,01,4.30
2011,04,18,01,02,4.30
2011,04,18,01,03,4.30
2011,04,18,01,04,4.30
2011,04,18,01,05,4.20
2011,04,18,01,06,4.20
2011,04,18,01,07,4.20
2011,04,18,01,08,4.20
2011,04,18,01,09,4.20
2011,04,18,01,10,4.20
2011,04,18,01,11,4.20
2011,04,18,01,12,4.20
2011,04,18,01,13,4.20
2011,04,18,01,14,4.10
2011,04,18,01,15,4.10
2011,04,18,01,16,4.10
2011,04,18,01,17,4.10
2011,04,18,01,18,4.10
2011,04,18,01,19,4.00
2011,04,18,01,20,4.00
2011,04,18,01,21,4.00
2011,04,18,01,22,4.00
2011,04,18,01,23,4.00
2011,04,18,01,24,4.00
2011,04,18,01,25,4.00
2011,04,18,01,26,3.90
2011,04,18,01,27,3.90
2011,04,18,01,28,3.90
2011,04,18,01,29,3.90
2011,04,18,01,30,3.80
2011,04,18,01,31,3.80
2011,04,18,01,32,3.80
2011,04,18,01,33,3.80
2011,04,18,01,34,3.80
2011,04,18,01,35,3.80
2011,04,18,01,36,3.80
2011,04,18,01,37,3.80
2011,04,18,01,38,3.80
2011,04,18,01,39,3.80
2011,04,18,01,40,3.70
2011,04,18,01,41,3.70
2011,04,18,01,42,3.70
2011,04,18,01,43,3.70
2011,04,18,01,44,3.70
2011,04,18,01,45,3.70
2011,04,18,01,46,3.70
2011,04,18,01,47,3.70
2011,04,18,01,48,3.60
2011,04,18,01,49,3.60
2011,04,18,01,50,3.60
2011,04,18,01,51,3.60
2011,04,18,01,52,3.60
2011,04,18,01,53,3.50
2011,04,18,01,54,3.50
2011,04,18,01,55,3.50
2011,04,18,01,56,3.40
2011,04,18,01,57,3.40
2011,04,18,01,58,3.40
2011,04,18,01,59,3.30
2011,04,18,02,00,3.30
2011,04,18,02,01,3.30
2011,04,18,02,02,3.30
2011,04,18,02,03,3.20
2011,04,18,02,04,3.20
2011,04,18,02,05,3.20
2011,04,18,02,06,3.20
2011,04,18,02,07,3.20
2011,04,18,02,08,3.20
2011,04,18,02,09,3.20
2011,04,18,02,10,3.20
2011,04,18,02,11,3.20
2011,04,18,02,12,3.20
2011,04,18,02,13,3.20
2011,04,18,02,14,3.20
2011,04,18,02,15,3.20
2011,04,18,02,16,3.20
2011,04,18,02,17,3.20
2011,04,18,02,18,3.20
2011,04,18,02,19,3.20
2011,04,18,02,20,3.20
2011,04,18,02,21,3.20
2011,04,18,02,22,3.20
2011,04,18,02,23,3.20
2011,04,18,02,24,3.10
2011,04,18,02,25,3.10
2011,04,18,02,26,3.10
2011,04,18,02,27,3.10
2011,04,18,02,28,3.10
2011,04,18,02,29,3.10
2011,04,18,02,30,3.10
2011,04,18,02,31,3.10
2011,04,18,02,32,3.10
2011,04,18,02,33,3.00
2011,04,18,02,34,2.90
2011,04,18,02,35,2.90
2011,04,18,02,36,2.90
2011,04,18,02,37,2.90
2011,04,18,02,38,2.90
2011,04,18,02,39,2.90
2011,04,18,02,40,2.90
2011,04,18,02,41,2.90
2011,04,18,02,42,2.90
2011,04,18,02,43,2.80
2011,04,18,02,44,2.80
2011,04,18,02,45,2.80
2011,04,18,02,46,2.80
2011,04,18,02,47,2.80
2011,04,18,02,48,2.80
2011,04,18,02,49,2.80
2011,04,18,02,50,2.80
2011,04,18,02,51,2.80
2011,04,18,02,52,2.70
2011,04,18,02,53,2.70
2011,04,18,02,54,2.70
2011,04,18,02,55,2.70
2011,04,18,02,56,2.70
2011,04,18,02,57,2.70
2011,04,18,02,58,2.70
2011,04,18,02,59,2.70
2011,04,18,03,00,2.70
2011,04,18,03,01,2.70
2011,04,18,03,02,2.70
2011,04,18,03,03,2.70
2011,04,18,03,04,2.70
2011,04,18,03,05,2.70
2011,04,18,03,06,2.60
2011,04,18,03,07,2.60
2011,04,18,03,08,2.60
2011,04,18,03,09,2.60
2011,04,18,03,10,2.60
2011,04,18,03,11,2.60
2011,04,18,03,12,2.60
2011,04,18,03,13,2.60
2011,04,18,03,14,2.50
2011,04,18,03,15,2.50
2011,04,18,03,16,2.50
2011,04,18,03,17,2.50
2011,04,18,03,18,2.50
2011,04,18,03,19,2.50
2011,04,18,03,20,2.50
2011,04,18,03,21,2.40
2011,04,18,03,22,2.40
2011,04,18,03,23,2.40
2011,04,18,03,24,2.40
2011,04,18,03,25,2.40
2011,04,18,03,26,2.40
2011,04,18,03,27,2.40
2011,04,18,03,28,2.40
2011,04,18,03,29,2.40
2011,04,18,03,30,2.30
2011,04,18,03,31,2.30
2011,04,18,03,32,2.30
2011,04,18,03,33,2.30
2011,04,18,03,34,2.20
2011,04,18,03,35,2.20
2011,04,18,03,36,2.20
2011,04,18,03,37,2.20
2011,04,18,03,38,2.20
2011,04,18,03,39,2.20
2011,04,18,03,40,2.10
2011,04,18,03,41,2.10
2011,04,18,03,42,2.10
2011,04,18,03,43,2.10
2011,04,18,03,44,2.00
2011,04,18,03,45,2.00
2011,04,18,03,46,2.00
2011,04,18,03,47,2.00
2011,04,18,03,48,2.00
2011,04,18,03,49,2.00
2011,04,18,03,50,2.00
2011,04,18,03,51,2.00
2011,04,18,03,52,2.00
2011,04,18,03,53,2.00
2011,04,18,03,54,2.10
2011,04,18,03,55,2.10
2011,04,18,03,56,2.10
2011,04,18,03,57,2.10
2011,04,18,03,58,2.10
2011,04,18,03,59,2.10
2011,04,18,04,00,2.10
2011,04,18,04,01,2.10
2011,04,18,04,02,2.10
2011,04,18,04,03,2.10
2011,04,18,04,04,2.10
2011,04,18,04,05,2.10
2011,04,18,04,06,2.10
2011,04,18,04,07,2.00
2011,04,18,04,08,2.00
2011,04,18,04,09,2.00
2011,04,18,04,10,2.00
2011,04,18,04,11,2.00
2011,04,18,04,12,2.00
2011,04,18,04,13,2.00
2011,04,18,04,14,2.00
2011,04,18,04,15,2.00
2011,04,18,04,16,2.00
2011,04,18,04,17,2.10
2011,04,18,04,18,2.10
2011,04,18,04,19,2.10
2011,04,18,04,20,2.10
2011,04,18,04,21,2.10
2011,04,18,04,22,2.10
2011,04,18,04,23,2.10
2011,04,18,04,24,2.10
2011,04,18,04,25,2.10
2011,04,18,04,26,2.10
2011,04,18,04,27,2.10
2011,04,18,04,28,2.10
2011,04,18,04,29,2.10
2011,04,18,04,30,2.00
2011,04,18,04,31,2.00
2011,04,18,04,32,2.00
2011,04,18,04,33,2.00
2011,04,18,04,34,2.00
2011,04,18,04,35,2.00
2011,04,18,04,36,2.00
2011,04,18,04,37,2.00
2011,04,18,04,38,2.00
2011,04,18,04,39,2.00
2011,04,18,04,40,2.00
2011,04,18,04,41,2.00
2011,04,18,04,42,2.00
2011,04,18,04,43,2.00
2011,04,18,04,44,2.00
2011,04,18,04,45,2.00
2011,04,18,04,46,2.00
2011,04,18,04,47,2.00
2011,04,18,04,48,2.00
2011,04,18,04,49,2.00
2011,04,18,04,50,2.00
2011,04,18,04,51,2.00
2011,04,18,04,52,2.00
2011,04,18,04,53,2.00
2011,04,18,04,54,2.00
2011,04,18,04,55,2.00
2011,04,18,04,56,2.00
2011,04,18,04,57,2.00
2011,04,18,04,58,1.90
2011,04,18,04,59,1.90
2011,04,18,05,00,1.90
2011,04,18,05,01,1.90
2011,04,18,05,02,1.90
2011,04,18,05,03,1.90
2011,04,18,05,04,1.90
2011,04,18,05,05,1.90
2011,04,18,05,06,1.90
2011,04,18,05,07,1.90
2011,04,18,05,08,1.90
2011,04,18,05,09,1.90
2011,04,18,05,10,1.90
2011,04,18,05,11,1.90
2011,04,18,05,12,1.90
2011,04,18,05,13,1.90
2011,04,18,05,14,1.80
2011,04,18,05,15,1.80
2011,04,18,05,16,1.80
2011,04,18,05,17,1.80
2011,04,18,05,18,1.80
2011,04,18,05,19,1.80
2011,04,18,05,20,1.80
2011,04,18,05,21,1.80
2011,04,18,05,22,1.80
2011,04,18,05,23,1.80
2011,04,18,05,24,1.80
2011,04,18,05,25,1.80
2011,04,18,05,26,1.80
2011,04,18,05,27,1.80
2011,04,18,05,28,1.80
2011,04,18,05,29,1.80
2011,04,18,05,30,1.70
2011,04,18,05,31,1.70
2011,04,18,05,32,1.70
2011,04,18,05,33,1.70
2011,04,18,05,34,1.70
2011,04,18,05,35,1.70
2011,04,18,05,36,1.70
2011,04,18,05,37,1.70
2011,04,18,05,38,1.70
2011,04,18,05,39,1.70
2011,04,18,05,40,1.70
2011,04,18,05,41,1.70
2011,04,18,05,42,1.70
2011,04,18,05,43,1.70
2011,04,18,05,44,1.70
2011,04,18,05,45,1.70
2011,04,18,05,46,1.70
2011,04,18,05,47,1.70
2011,04,18,05,48,1.70
2011,04,18,05,49,1.70
2011,04,18,05,50,1.70
2011,04,18,05,51,1.80
2011,04,18,05,52,1.80
2011,04,18,05,53,1.80
2011,04,18,05,54,1.80
2011,04,18,05,55,1.80
2011,04,18,05,56,1.80
2011,04,18,05,57,1.80
2011,04,18,05,58,1.90
2011,04,18,05,59,1.90
2011,04,18,06,00,1.90
2011,04,18,06,01,1.90
2011,04,18,06,02,1.90
2011,04,18,06,03,1.90
2011,04,18,06,04,1.90
2011,04,18,06,05,1.90
2011,04,18,06,06,1.90
2011,04,18,06,07,1.90
2011,04,18,06,08,1.90
2011,04,18,06,09,1.90
2011,04,18,06,10,1.90
2011,04,18,06,11,1.90
2011,04,18,06,12,1.90
2011,04,18,06,13,1.90
2011,04,18,06,14,1.90
2011,04,18,06,15,1.90
2011,04,18,06,16,1.90
2011,04,18,06,17,2.00
2011,04,18,06,18,2.00
2011,04,18,06,19,2.00
2011,04,18,06,20,2.00
2011,04,18,06,21,2.00
2011,04,18,06,22,2.00
2011,04,18,06,23,2.00
2011,04,18,06,24,2.00
2011,04,18,06,25,2.00
2011,04,18,06,26,2.10
2011,04,18,06,27,2.10
2011,04,18,06,28,2.10
2011,04,18,06,29,2.10
2011,04,18,06,30,2.10
2011,04,18,06,31,2.20
2011,04,18,06,32,2.20
2011,04,18,06,33,2.20
2011,04,18,06,34,2.20
2011,04,18,06,35,2.20
2011,04,18,06,36,2.20
2011,04,18,06,37,2.20
2011,04,18,06,38,2.20
2011,04,18,06,39,2.20
2011,04,18,06,40,2.20
2011,04,18,06,41,2.20
2011,04,18,06,42,2.20
2011,04,18,06,43,2.20
2011,04,18,06,44,2.20
2011,04,18,06,45,2.20
2011,04,18,06,46,2.20
2011,04,18,06,47,2.30
2011,04,18,06,48,2.30
2011,04,18,06,49,2.30
2011,04,18,06,50,2.30
2011,04,18,06,51,2.30
2011,04,18,06,52,2.30
2011,04,18,06,53,2.30
2011,04,18,06,54,2.30
2011,04,18,06,55,2.30
2011,04,18,06,56,2.40
2011,04,18,06,57,2.40
2011,04,18,06,58,2.40
2011,04,18,06,59,2.40
2011,04,18,07,00,2.40
2011,04,18,07,01,2.40
2011,04,18,07,02,2.50
2011,04,18,07,03,2.50
2011,04,18,07,04,2.50
2011,04,18,07,05,2.50
2011,04,18,07,06,2.50
2011,04,18,07,07,2.50
2011,04,18,07,08,2.50
2011,04,18,07,09,2.50
2011,04,18,07,10,2.50
2011,04,18,07,11,2.50
2011,04,18,07,12,2.50
2011,04,18,07,13,2.50
2011,04,18,07,14,2.50
2011,04,18,07,15,2.50
2011,04,18,07,16,2.60
2011,04,18,07,17,2.60
2011,04,18,07,18,2.60
2011,04,18,07,19,2.60
2011,04,18,07,20,2.60
2011,04,18,07,21,2.70
2011,04,18,07,22,2.70
2011,04,18,07,23,2.70
2011,04,18,07,24,2.70
2011,04,18,07,25,2.70
2011,04,18,07,26,2.80
2011,04,18,07,27,2.80
2011,04,18,07,28,2.80
2011,04,18,07,29,2.80
2011,04,18,07,30,2.90
2011,04,18,07,31,2.90
2011,04,18,07,32,2.90
2011,04,18,07,33,2.90
2011,04,18,07,34,2.90
2011,04,18,07,35,2.90
2011,04,18,07,36,2.90
2011,04,18,07,37,3.00
2011,04,18,07,38,3.10
2011,04,18,07,39,3.10
2011,04,18,07,40,3.10
2011,04,18,07,41,3.10
2011,04,18,07,42,3.10
2011,04,18,07,43,3.20
2011,04,18,07,44,3.20
2011,04,18,07,45,3.20
2011,04,18,07,46,3.30
2011,04,18,07,47,3.30
2011,04,18,07,48,3.30
2011,04,18,07,49,3.30
2011,04,18,07,50,3.30
2011,04,18,07,51,3.40
2011,04,18,07,52,3.40
2011,04,18,07,53,3.50
2011,04,18,07,54,3.50
2011,04,18,07,55,3.60
2011,04,18,07,56,3.60
2011,04,18,07,57,3.70
2011,04,18,07,58,3.70
2011,04,18,07,59,3.80
2011,04,18,08,00,3.80
2011,04,18,08,01,3.90
2011,04,18,08,02,3.90
2011,04,18,08,03,4.00
2011,04,18,08,04,4.00
2011,04,18,08,05,4.00
2011,04,18,08,06,4.10
2011,04,18,08,07,4.20
2011,04,18,08,08,4.20
2011,04,18,08,09,4.30
2011,04,18,08,10,4.30
2011,04,18,08,11,4.40
2011,04,18,08,12,4.40
2011,04,18,08,13,4.50
2011,04,18,08,14,4.60
2011,04,18,08,15,4.60
2011,04,18,08,16,4.70
2011,04,18,08,17,4.70
2011,04,18,08,18,4.80
2011,04,18,08,19,4.90
2011,04,18,08,20,5.00
2011,04,18,08,21,5.10
2011,04,18,08,22,5.10
2011,04,18,08,23,5.20
2011,04,18,08,24,5.30
2011,04,18,08,25,5.30
2011,04,18,08,26,5.40
2011,04,18,08,27,5.50
2011,04,18,08,28,5.60
2011,04,18,08,29,5.70
2011,04,18,08,30,5.70
2011,04,18,08,31,5.80
2011,04,18,08,32,5.80
2011,04,18,08,33,5.90
2011,04,18,08,34,6.00
2011,04,18,08,35,6.10
2011,04,18,08,36,6.20
2011,04,18,08,37,6.20
2011,04,18,08,38,6.30
2011,04,18,08,39,6.30
2011,04,18,08,40,6.40
2011,04,18,08,41,6.40
2011,04,18,08,42,6.40
2011,04,18,08,43,6.50
2011,04,18,08,44,6.60
2011,04,18,08,45,6.60
2011,04,18,08,46,6.60
2011,04,18,08,47,6.60
2011,04,18,08,48,6.60
2011,04,18,08,49,6.70
2011,04,18,08,50,6.70
2011,04,18,08,51,6.70
2011,04,18,08,52,6.80
2011,04,18,08,53,6.80
2011,04,18,08,54,6.80
2011,04,18,08,55,6.80
2011,04,18,08,56,6.90
2011,04,18,08,57,7.00
2011,04,18,08,58,7.10
2011,04,18,08,59,7.10
2011,04,18,09,00,7.20
2011,04,18,09,01,7.30
2011,04,18,09,02,7.30
2011,04,18,09,03,7.40
2011,04,18,09,04,7.40
2011,04,18,09,05,7.40
2011,04,18,09,06,7.40
2011,04,18,09,07,7.40
2011,04,18,09,08,7.40
2011,04,18,09,09,7.30
2011,04,18,09,10,7.30
2011,04,18,09,11,7.30
2011,04,18,09,12,7.30
2011,04,18,09,13,7.30
2011,04,18,09,14,7.30
2011,04,18,09,15,7.30
2011,04,18,09,16,7.30
2011,04,18,09,17,7.40
2011,04,18,09,18,7.40
2011,04,18,09,19,7.50
2011,04,18,09,20,7.50
2011,04,18,09,21,7.70
2011,04,18,09,22,7.80
2011,04,18,09,23,7.80
2011,04,18,09,24,7.90
2011,04,18,09,25,7.90
2011,04,18,09,26,8.00
2011,04,18,09,27,8.00
2011,04,18,09,28,8.00
2011,04,18,09,29,8.00
2011,04,18,09,30,8.00
2011,04,18,09,31,8.10
2011,04,18,09,32,8.10
2011,04,18,09,33,8.20
2011,04,18,09,34,8.20
2011,04,18,09,35,8.20
2011,04,18,09,36,8.30
2011,04,18,09,37,8.30
2011,04,18,09,38,8.30
2011,04,18,09,39,8.30
2011,04,18,09,40,8.40
2011,04,18,09,41,8.40
2011,04,18,09,42,8.40
2011,04,18,09,43,8.50
2011,04,18,09,44,8.50
2011,04,18,09,45,8.50
2011,04,18,09,46,8.50
2011,04,18,09,47,8.50
2011,04,18,09,48,8.50
2011,04,18,09,49,8.50
2011,04,18,09,50,8.60
2011,04,18,09,51,8.60
2011,04,18,09,52,8.70
2011,04,18,09,53,8.70
2011,04,18,09,54,8.70
2011,04,18,09,55,8.70
2011,04,18,09,56,8.70
2011,04,18,09,57,8.70
2011,04,18,09,58,8.80
2011,04,18,09,59,8.80
2011,04,18,10,00,8.80
2011,04,18,10,01,8.90
2011,04,18,10,02,8.90
2011,04,18,10,03,8.90
2011,04,18,10,04,8.90
2011,04,18,10,05,8.90
2011,04,18,10,06,8.70
2011,04,18,10,07,8.70
2011,04,18,10,08,8.60
2011,04,18,10,09,8.60
2011,04,18,10,10,8.60
2011,04,18,10,11,8.60
2011,04,18,10,12,8.60
2011,04,18,10,13,8.50
2011,04,18,10,14,8.50
2011,04,18,10,15,8.50
2011,04,18,10,16,8.40
2011,04,18,10,17,8.40
2011,04,18,10,18,8.40
2011,04,18,10,19,8.40
2011,04,18,10,20,8.40
2011,04,18,10,21,8.30
2011,04,18,10,22,8.20
2011,04,18,10,23,8.20
2011,04,18,10,24,8.20
2011,04,18,10,25,8.20
2011,04,18,10,26,8.20
2011,04,18,10,27,8.20
2011,04,18,10,28,8.20
2011,04,18,10,29,8.20
2011,04,18,10,30,8.20
2011,04,18,10,31,8.20
2011,04,18,10,32,8.20
2011,04,18,10,33,8.30
2011,04,18,10,34,8.40
2011,04,18,10,35,8.50
2011,04,18,10,36,8.50
2011,04,18,10,37,8.60
2011,04,18,10,38,8.60
2011,04,18,10,39,8.70
2011,04,18,10,40,8.70
2011,04,18,10,41,8.80
2011,04,18,10,42,8.80
2011,04,18,10,43,8.90
2011,04,18,10,44,8.90
2011,04,18,10,45,9.00
2011,04,18,10,46,9.00
2011,04,18,10,47,9.10
2011,04,18,10,48,9.20
2011,04,18,10,49,9.20
2011,04,18,10,50,9.20
2011,04,18,10,51,9.20
2011,04,18,10,52,9.10
2011,04,18,10,53,9.10
2011,04,18,10,54,9.10
2011,04,18,10,55,9.20
2011,04,18,10,56,9.20
2011,04,18,10,57,9.20
2011,04,18,10,58,9.20
2011,04,18,10,59,9.20
2011,04,18,11,00,9.20
2011,04,18,11,01,9.20
2011,04,18,11,02,9.30
2011,04,18,11,03,9.30
2011,04,18,11,04,9.20
2011,04,18,11,05,9.20
2011,04,18,11,06,9.30
2011,04,18,11,07,9.30
2011,04,18,11,08,9.30
2011,04,18,11,09,9.40
2011,04,18,11,10,9.40
2011,04,18,11,11,9.40
2011,04,18,11,12,9.50
2011,04,18,11,13,9.60
2011,04,18,11,14,9.60
2011,04,18,11,15,9.60
2011,04,18,11,16,9.40
2011,04,18,11,17,9.40
2011,04,18,11,18,9.20
2011,04,18,11,19,8.90
2011,04,18,11,20,8.80
2011,04,18,11,21,8.80
2011,04,18,11,22,8.80
2011,04,18,11,23,8.80
2011,04,18,11,24,8.90
2011,04,18,11,25,8.80
2011,04,18,11,26,8.70
2011,04,18,11,27,8.80
2011,04,18,11,28,9.00
2011,04,18,11,29,9.10
2011,04,18,11,30,9.20
2011,04,18,11,31,9.10
2011,04,18,11,32,9.10
2011,04,18,11,33,9.10
2011,04,18,11,34,9.00
2011,04,18,11,35,8.80
2011,04,18,11,36,8.60
2011,04,18,11,37,8.50
2011,04,18,11,38,8.30
2011,04,18,11,39,8.30
2011,04,18,11,40,8.30
2011,04,18,11,41,8.30
2011,04,18,11,42,8.40
2011,04,18,11,43,8.50
2011,04,18,11,44,8.50
2011,04,18,11,45,8.50
2011,04,18,11,46,8.50
2011,04,18,11,47,8.50
2011,04,18,11,48,8.60
2011,04,18,11,49,8.50
2011,04,18,11,50,8.50
2011,04,18,11,51,8.50
2011,04,18,11,52,8.30
2011,04,18,11,53,8.30
2011,04,18,11,54,8.30
2011,04,18,11,55,8.40
2011,04,18,11,56,8.60
2011,04,18,11,57,8.70
2011,04,18,11,58,8.60
2011,04,18,11,59,8.60
2011,04,18,12,00,8.70
2011,04,18,12,01,8.80
2011,04,18,12,02,8.70
2011,04,18,12,03,8.70
2011,04,18,12,04,8.70
2011,04,18,12,05,8.70
2011,04,18,12,06,8.80
2011,04,18,12,07,8.80
2011,04,18,12,08,8.80
2011,04,18,12,09,8.90
2011,04,18,12,10,9.10
2011,04,18,12,11,9.30
2011,04,18,12,12,9.40
2011,04,18,12,13,9.50
2011,04,18,12,14,9.50
2011,04,18,12,15,9.50
2011,04,18,12,16,9.50
2011,04,18,12,17,9.30
2011,04,18,12,18,9.00
2011,04,18,12,19,8.80
2011,04,18,12,20,8.60
2011,04,18,12,21,8.50
2011,04,18,12,22,8.60
2011,04,18,12,23,8.60
2011,04,18,12,24,8.60
2011,04,18,12,25,8.60
2011,04,18,12,26,8.60
2011,04,18,12,27,8.60
2011,04,18,12,28,8.70
2011,04,18,12,29,8.70
2011,04,18,12,30,8.70
2011,04,18,12,31,8.70
2011,04,18,12,32,8.90
2011,04,18,12,33,9.00
2011,04,18,12,34,9.00
2011,04,18,12,35,8.90
2011,04,18,12,36,8.90
2011,04,18,12,37,9.00
2011,04,18,12,38,8.90
2011,04,18,12,39,8.80
2011,04,18,12,40,8.80
2011,04,18,12,41,8.80
2011,04,18,12,42,8.80
2011,04,18,12,43,8.70
2011,04,18,12,44,8.60
2011,04,18,12,45,8.60
2011,04,18,12,46,8.60
2011,04,18,12,47,8.80
2011,04,18,12,48,8.90
2011,04,18,12,49,9.00
2011,04,18,12,50,9.00
2011,04,18,12,51,8.90
2011,04,18,12,52,8.90
2011,04,18,12,53,8.90
2011,04,18,12,54,8.80
2011,04,18,12,55,8.80
2011,04,18,12,56,8.80
2011,04,18,12,57,8.90
2011,04,18,12,58,9.00
2011,04,18,12,59,9.00
2011,04,18,13,00,9.20
2011,04,18,13,01,9.30
2011,04,18,13,02,9.30
2011,04,18,13,03,9.30
2011,04,18,13,04,9.20
2011,04,18,13,05,9.20
2011,04,18,13,06,9.20
2011,04,18,13,07,9.30
2011,04,18,13,08,9.50
2011,04,18,13,09,9.50
2011,04,18,13,10,9.50
2011,04,18,13,11,9.50
2011,04,18,13,12,9.60
2011,04,18,13,13,9.50
2011,04,18,13,14,9.40
2011,04,18,13,15,9.40
2011,04,18,13,16,9.30
2011,04,18,13,17,9.20
2011,04,18,13,18,9.20
2011,04,18,13,19,9.10
2011,04,18,13,20,9.00
2011,04,18,13,21,8.90
2011,04,18,13,22,9.00
2011,04,18,13,23,9.00
2011,04,18,13,24,9.10
2011,04,18,13,25,9.10
2011,04,18,13,26,9.10
2011,04,18,13,27,9.10
2011,04,18,13,28,9.10
2011,04,18,13,29,9.20
2011,04,18,13,30,9.20
2011,04,18,13,31,9.20
2011,04,18,13,32,9.20
2011,04,18,13,33,9.20
2011,04,18,13,34,9.00
2011,04,18,13,35,9.00
2011,04,18,13,36,8.90
2011,04,18,13,37,8.90
2011,04,18,13,38,8.90
2011,04,18,13,39,8.90
2011,04,18,13,40,8.90
2011,04,18,13,41,9.10
2011,04,18,13,42,9.20
2011,04,18,13,43,9.20
2011,04,18,13,44,9.30
2011,04,18,13,45,9.30
2011,04,18,13,46,9.20
2011,04,18,13,47,9.10
2011,04,18,13,48,9.00
2011,04,18,13,49,8.90
2011,04,18,13,50,8.90
2011,04,18,13,51,8.80
2011,04,18,13,52,8.80
2011,04,18,13,53,8.80
2011,04,18,13,54,8.70
2011,04,18,13,55,8.70
2011,04,18,13,56,8.70
2011,04,18,13,57,8.60
2011,04,18,13,58,8.50
2011,04,18,13,59,8.50
2011,04,18,14,00,8.40
2011,04,18,14,01,8.30
2011,04,18,14,02,8.30
2011,04,18,14,03,8.40
2011,04,18,14,04,8.40
2011,04,18,14,05,8.30
2011,04,18,14,06,8.30
2011,04,18,14,07,8.40
2011,04,18,14,08,8.50
2011,04,18,14,09,8.60
2011,04,18,14,10,8.60
2011,04,18,14,11,8.70
2011,04,18,14,12,8.60
2011,04,18,14,13,8.60
2011,04,18,14,14,8.70
2011,04,18,14,15,8.80
2011,04,18,14,16,8.90
2011,04,18,14,17,8.90
2011,04,18,14,18,9.00
2011,04,18,14,19,9.00
2011,04,18,14,20,9.10
2011,04,18,14,21,9.10
2011,04,18,14,22,9.00
2011,04,18,14,23,9.00
2011,04,18,14,24,9.00
2011,04,18,14,25,9.00
2011,04,18,14,26,9.00
2011,04,18,14,27,9.10
2011,04,18,14,28,9.10
2011,04,18,14,29,9.10
2011,04,18,14,30,9.20
2011,04,18,14,31,9.20
2011,04,18,14,32,9.30
2011,04,18,14,33,9.30
2011,04,18,14,34,9.40
2011,04,18,14,35,9.50
2011,04,18,14,36,9.60
2011,04,18,14,37,9.70
2011,04,18,14,38,9.70
2011,04,18,14,39,9.70
2011,04,18,14,40,9.70
2011,04,18,14,41,9.60
2011,04,18,14,42,9.60
2011,04,18,14,43,9.70
2011,04,18,14,44,9.70
2011,04,18,14,45,9.60
2011,04,18,14,46,9.60
2011,04,18,14,47,9.50
2011,04,18,14,48,9.50
2011,04,18,14,49,9.50
2011,04,18,14,50,9.60
2011,04,18,14,51,9.60
2011,04,18,14,52,9.60
2011,04,18,14,53,9.60
2011,04,18,14,54,9.60
2011,04,18,14,55,9.60
2011,04,18,14,56,9.60
2011,04,18,14,57,9.60
2011,04,18,14,58,9.70
2011,04,18,14,59,9.70
2011,04,18,15,00,9.70
2011,04,18,15,01,9.80
2011,04,18,15,02,9.80
2011,04,18,15,03,9.80
2011,04,18,15,04,9.80
2011,04,18,15,05,9.80
2011,04,18,15,06,9.70
2011,04,18,15,07,9.80
2011,04,18,15,08,9.80
2011,04,18,15,09,9.80
2011,04,18,15,10,9.90
2011,04,18,15,11,9.90
2011,04,18,15,12,9.90
2011,04,18,15,13,9.90
2011,04,18,15,14,9.90
2011,04,18,15,15,9.90
2011,04,18,15,16,9.80
2011,04,18,15,17,9.90
2011,04,18,15,18,9.90
2011,04,18,15,19,9.80
2011,04,18,15,20,9.70
2011,04,18,15,21,9.70
2011,04,18,15,22,9.60
2011,04,18,15,23,9.40
2011,04,18,15,24,9.20
2011,04,18,15,25,9.00
2011,04,18,15,26,8.90
2011,04,18,15,27,8.90
2011,04,18,15,28,8.80
2011,04,18,15,29,8.70
2011,04,18,15,30,8.70
2011,04,18,15,31,8.70
2011,04,18,15,32,8.60
2011,04,18,15,33,8.60
2011,04,18,15,34,8.70
2011,04,18,15,35,8.70
2011,04,18,15,36,8.60
2011,04,18,15,37,8.60
2011,04,18,15,38,8.60
2011,04,18,15,39,8.60
2011,04,18,15,40,8.60
2011,04,18,15,41,8.70
2011,04,18,15,42,8.70
2011,04,18,15,43,8.80
2011,04,18,15,44,8.90
2011,04,18,15,45,9.00
2011,04,18,15,46,9.00
2011,04,18,15,47,9.10
2011,04,18,15,48,9.10
2011,04,18,15,49,9.20
2011,04,18,15,50,9.20
2011,04,18,15,51,9.30
2011,04,18,15,52,9.40
2011,04,18,15,53,9.40
2011,04,18,15,54,9.50
2011,04,18,15,55,9.60
2011,04,18,15,56,9.70
2011,04,18,15,57,9.70
2011,04,18,15,58,9.70
2011,04,18,15,59,9.70
2011,04,18,16,00,9.70
2011,04,18,16,01,9.80
2011,04,18,16,02,9.80
2011,04,18,16,03,9.90
2011,04,18,16,04,9.90
2011,04,18,16,05,9.90
2011,04,18,16,06,9.90
2011,04,18,16,07,10.00
2011,04,18,16,08,10.10
2011,04,18,16,09,10.10
2011,04,18,16,10,10.10
2011,04,18,16,11,10.10
2011,04,18,16,12,10.20
2011,04,18,16,13,10.20
2011,04,18,16,14,10.20
2011,04,18,16,15,10.10
2011,04,18,16,16,10.10
2011,04,18,16,17,10.00
2011,04,18,16,18,9.90
2011,04,18,16,19,9.90
2011,04,18,16,20,9.90
2011,04,18,16,21,9.90
2011,04,18,16,22,9.90
2011,04,18,16,23,10.00
2011,04,18,16,24,10.10
2011,04,18,16,25,10.10
2011,04,18,16,26,10.10
2011,04,18,16,27,10.20
2011,04,18,16,28,10.20
2011,04,18,16,29,10.30
2011,04,18,16,30,10.30
2011,04,18,16,31,10.30
2011,04,18,16,32,10.40
2011,04,18,16,33,10.40
2011,04,18,16,34,10.40
2011,04,18,16,35,10.60
2011,04,18,16,36,10.70
2011,04,18,16,37,10.80
2011,04,18,16,38,10.90
2011,04,18,16,39,11.00
2011,04,18,16,40,11.10
2011,04,18,16,41,11.10
2011,04,18,16,42,11.10
2011,04,18,16,43,11.10
2011,04,18,16,44,11.10
2011,04,18,16,45,11.10
2011,04,18,16,46,11.10
2011,04,18,16,47,11.10
2011,04,18,16,48,11.20
2011,04,18,16,49,11.30
2011,04,18,16,50,11.30
2011,04,18,16,51,11.20
2011,04,18,16,52,10.90
2011,04,18,16,53,10.60
2011,04,18,16,54,10.30
2011,04,18,16,55,10.20
2011,04,18,16,56,10.10
2011,04,18,16,57,9.90
2011,04,18,16,58,9.80
2011,04,18,16,59,9.80
2011,04,18,17,00,9.80
2011,04,18,17,01,9.70
2011,04,18,17,02,9.70
2011,04,18,17,03,9.70
2011,04,18,17,04,9.70
2011,04,18,17,05,9.50
2011,04,18,17,06,9.40
2011,04,18,17,07,9.40
2011,04,18,17,08,9.40
2011,04,18,17,09,9.50
2011,04,18,17,10,9.50
2011,04,18,17,11,9.50
2011,04,18,17,12,9.40
2011,04,18,17,13,9.40
2011,04,18,17,14,9.40
2011,04,18,17,15,9.40
2011,04,18,17,16,9.40
2011,04,18,17,17,9.40
2011,04,18,17,18,9.40
2011,04,18,17,19,9.40
2011,04,18,17,20,9.50
2011,04,18,17,21,9.50
2011,04,18,17,22,9.50
2011,04,18,17,23,9.50
2011,04,18,17,24,9.60
2011,04,18,17,25,9.60
2011,04,18,17,26,9.50
2011,04,18,17,27,9.50
2011,04,18,17,28,9.50
2011,04,18,17,29,9.60
2011,04,18,17,30,9.60
2011,04,18,17,31,9.70
2011,04,18,17,32,9.70
2011,04,18,17,33,9.70
2011,04,18,17,34,9.80
2011,04,18,17,35,10.00
2011,04,18,17,36,10.10
2011,04,18,17,37,10.10
2011,04,18,17,38,10.10
2011,04,18,17,39,10.10
2011,04,18,17,40,10.10
2011,04,18,17,41,10.10
2011,04,18,17,42,10.20
2011,04,18,17,43,10.20
2011,04,18,17,44,10.30
2011,04,18,17,45,10.30
2011,04,18,17,46,10.40
2011,04,18,17,47,10.40
2011,04,18,17,48,10.50
2011,04,18,17,49,10.60
2011,04,18,17,50,10.70
2011,04,18,17,51,10.80
2011,04,18,17,52,10.80
2011,04,18,17,53,10.80
2011,04,18,17,54,10.90
2011,04,18,17,55,11.00
2011,04,18,17,56,11.10
2011,04,18,17,57,11.20
2011,04,18,17,58,11.30
2011,04,18,17,59,11.40
2011,04,18,18,00,11.50
2011,04,18,18,01,11.60
2011,04,18,18,02,11.70
2011,04,18,18,03,11.80